SCP
0 0 0 0 0 0 0 0 0 0 0 0 0 0 0 0 0 0 0 0 0 0 0 0 0 0 0 0 0 0 0 0 0 0 0 0 0 0
0 0 0 0 0 0 0 0 0 0 0 0 0 0 0 0 0 0 0 0 0 0 0 0 0 0 0 0 0 0 0 0 0 0 0 0 0 0
0 0 0 0 0 0 0 0 0 0 0 0 0 0 0 0 0 0 0 0 0 0 0 0 0 0 0 0 0 0 0 0 0 0 0 0 0 0
0 0 0 0 0 0 0 0 0 0 0 0 0 0 -0 -0 -0 -0 0 -0 -0 -0 0 0 0 0 0 0 0 0 0 0 0 0 0 0 0 0
0 0 0 0 0 0 0 0 0 0 0 0 0 0 -0 -0 -0 -0 -0 -0 -0 -0 -0 -0 -0 0 0 0 0 0 0 0 0 0 0 0 0 0
0 0 0 0 0 0 0 0 0 0 0 0 0 0 -0 -0 -0 -0 -0 -0 -0 -0 -0 -0 -0 -0 -0 -0 -0 -0 0 0 0 0 0 0 0 0
0 0 0 0 0 0 0 0 0 0 0 0 0 0 -0 -0 -0 -0 -0 -0 -0 -0 -0 -0 -0 -0 -0 -0 -0 -0 -0 -0 0 0 0 0 0 0
0 0 0 0 0 0 0 0 0 0 0 0 0 0 0 0 0 -0 -0 -0 -0 -0 -0 -0 -0 -0 -0 -0 -0 -0 0 0 0 -0 0 0 0 0
0 0 0 0 0 0 0 0 0 0 0 0 0 0 0 0 0 0 0 0 0 0 -0 -0 -0 -0 -0 -0 0 0 -0 -0 0 0 0 0 0 0
0 0 0 0 0 0 0 0 0 0 0 0 0 0 0 0 0 0 0 0 0 -0 -0 -0 -0 -0 -0 -0 -0 -0 -0 -0 0 0 0 0 0 0
0 0 0 0 0 0 0 0 0 0 0 0 0 0 0 0 0 0 0 0 0 0 -0 0 -0 -0 -0 -0 -0 -0 -0 0 0 0 0 0 0 0
0 0 0 0 0 0 0 0 0 0 0 0 0 0 0 0 0 0 0 0 0 -0 0 0 -0 -0 -0 -0 -0 -0 -0 -0 -0 0 0 0 0 -0
0 0 0 0 0 0 0 0 0 0 0 0 0 0 0 0 0 0 0 0 0 0 0 0 0 0 -0 -0 -0 -0 -0 -0 -0 -0 0 0 0 0
0 0 0 0 0 0 0 0 0 0 0 0 0 0 0 0 0 0 0 0 0 0 0 0 0 0 0 0 -0 -0 -0 -0 -0 -0 -0 -0 -0 0
0 0 0 0 0 0 0 0 0 0 0 0 0 0 0 0 0 0 0 0 0 0 0 0 0 0 0 0 0 -0 -0 -0 -0 -0 -0 -0 -0 -0
0 0 0 0 0 0 0 0 0 0 0 0 0 0 0 0 0 0 0 0 0 0 0 0 0 0 0 0 0 0 0 0 0 0 -0 -0 -0 0
0 0 0 0 0 0 0 0 0 0 0 0 0 0 0 0 0 0 0 0 0 0 0 0 0 0 0 0 0 0 0 0 0 0 -0 -0 0 0
0 0 0 0 0 0 0 0 0 0 0 0 0 0 0 0 0 0 0 0 0 0 0 0 0 0 -0 0 -0 0 0 0 0 0 0 0 0 0
0 0 0 0 0 0 0 0 0 0 0 0 0 0 0 0 0 0 0 0 0 0 0 0 0 0 -0 0 -0 -0 0 0 0 0 0 0 0 0
0 0 0 0 0 0 0 0 0 0 0 0 0 0 0 0 0 0 0 0 0 0 0 0 0 0 0 0 -0 0 0 0 0 0 0 0 0 0
0 0 0 0 0 0 0 0 0 0 0 0 0 0 0 0 0 0 0 0 0 0 0 0 0 0 0 0 0 0 0 0 0 0 0 0 0 0
0 0 0 0 0 0 0 0 0 0 0 0 0 0 0 0 0 0 0 0 0 0 0 0 0 0 0 0 0 0 0 0 0 0 0 0 -0 -0
0 0 0 0 0 0 0 0 0 0 0 0 0 0 0 0 0 0 0 0 0 0 0 0 0 0 0 0 0 0 0 0 0 0 0 -0 -0 -0
Wind_Speed_500mb
22 20 20 19 18 17 18 20 23 18 31 26 31 40 39 42 44 46 47 50 54 60 64 69 70 70 68 69 69 74 70 61 63 72 80 93 113 106
13 10 7 3 4 6 9 14 20 23 19 36 46 53 53 52 53 56 56 55 52 53 56 63 70 73 75 71 73 75 79 73 65 65 69 71 68 86
9 6 2 2 6 10 14 18 23 30 40 52 57 60 64 66 65 64 68 69 69 61 57 60 63 67 72 77 76 77 80 78 80 81 79 72 65 68
5 2 4 8 13 18 22 26 29 34 45 57 63 66 69 69 72 72 72 73 78 77 74 73 70 69 69 69 72 77 80 82 81 82 82 81 77 74
6 10 13 17 21 25 29 33 37 40 45 54 64 66 70 72 78 81 83 83 83 84 86 84 80 76 76 76 76 78 78 76 79 78 80 85 85 81
12 17 20 24 29 32 35 38 41 44 48 54 60 66 69 73 77 88 97 91 96 89 89 85 88 92 93 93 94 89 83 78 75 76 84 90 90 88
15 19 24 27 31 34 36 39 42 45 49 54 61 66 70 76 81 89 96 105 107 88 89 98 105 104 98 97 96 96 96 95 94 91 82 75 86 94
16 18 22 25 30 32 33 36 39 42 46 51 55 60 66 70 76 81 90 100 111 90 119 124 110 112 106 99 96 96 98 100 98 97 97 95 86 79
21 23 26 30 34 38 36 37 37 38 42 45 47 54 62 65 72 76 78 85 95 105 104 127 116 111 100 94 99 102 100 92 91 93 98 98 92 82
22 25 27 28 32 38 40 39 38 38 39 44 48 55 58 61 63 69 76 88 95 94 85 116 104 103 112 126 120 104 92 94 98 98 96 95 96 98
20 23 26 28 32 37 40 42 44 43 44 45 46 49 53 56 59 68 73 83 100 101 61 56 89 125 131 128 102 105 106 109 105 105 103 98 93 89
21 21 24 30 34 38 39 42 46 47 53 53 50 47 48 50 53 56 62 71 77 90 45 90 100 94 110 120 118 129 123 117 111 109 110 104 93 88
26 25 31 32 35 34 36 37 41 49 50 52 53 52 51 50 50 51 52 58 67 73 79 67 96 91 68 110 136 121 119 119 119 115 111 107 99 87
30 32 32 34 33 35 36 38 42 44 48 52 54 55 57 58 57 58 60 57 56 64 68 59 76 75 83 105 107 128 125 120 116 116 107 103 96 87
31 32 34 34 36 37 37 40 42 45 48 51 55 57 58 60 61 62 62 63 65 65 61 57 60 69 71 87 100 113 116 122 107 98 100 98 97 102
34 34 34 35 38 40 40 39 41 45 49 53 56 58 60 62 61 62 69 71 76 76 71 62 64 63 77 75 76 99 95 91 100 111 112 118 113 102
39 35 35 36 38 40 42 43 43 45 48 51 56 60 62 64 63 62 63 68 71 80 85 77 75 69 67 62 80 79 86 94 103 111 111 120 111 99
37 38 37 40 42 44 47 48 46 47 49 51 54 58 62 64 66 64 62 64 71 75 80 83 88 90 80 73 43 66 81 95 111 111 109 102 118 99
38 40 41 43 45 47 50 51 51 49 50 52 55 58 62 64 65 66 63 63 69 73 76 80 82 75 79 98 75 55 89 108 109 114 104 110 112 115
41 43 43 45 48 51 51 52 51 51 52 54 56 58 60 64 66 65 63 63 68 74 80 77 73 67 67 93 117 106 74 88 94 108 119 117 114 110
41 44 45 48 50 52 53 53 54 55 55 57 57 60 60 62 65 62 62 59 63 70 79 78 73 68 76 89 96 109 107 89 78 89 100 106 107 107
44 48 46 49 52 54 55 56 58 55 56 57 58 60 61 60 64 64 61 61 61 67 74 74 76 75 77 75 90 99 111 119 100 92 82 71 83 95
47 50 51 51 52 55 57 59 60 59 58 59 61 62 61 63 60 61 62 58 60 66 69 75 76 74 79 75 82 90 101 109 115 126 99 75 70 69
Wind_Direction_500mb
274 275 276 278 285 297 308 314 319 319 323 315 327 321 326 324 324 321 317 312 304 297 289 281 280 282 285 281 287 292 295 296 291 286 292 272 256 258
254 250 250 268 336 351 356 348 340 333 315 313 323 325 323 323 322 319 317 311 309 307 303 295 289 283 282 279 279 279 282 291 290 288 288 293 289 273
183 180 178 22 351 343 343 342 337 331 325 321 324 326 326 326 323 321 320 318 316 313 306 302 299 296 291 288 286 283 282 281 282 286 284 284 284 273
179 230 318 332 331 334 334 334 333 330 325 322 320 324 326 328 326 323 321 319 317 317 316 310 305 302 299 294 288 288 286 285 284 278 276 279 276 274
318 324 329 328 327 329 331 331 330 328 324 321 320 322 322 325 323 322 322 320 317 318 318 318 317 315 312 305 300 300 298 297 288 284 278 277 273 274
314 318 322 323 324 326 327 328 326 324 322 320 320 321 324 327 326 324 319 321 319 320 316 316 316 312 313 314 313 312 305 299 295 289 285 276 275 274
312 316 318 321 320 320 322 324 324 324 324 323 323 324 326 328 330 328 323 322 321 323 319 315 315 317 316 315 313 314 315 315 311 307 300 291 284 278
296 302 307 312 313 315 319 322 322 324 321 321 321 321 323 326 324 324 322 322 323 317 320 317 320 317 318 315 314 312 310 311 311 310 308 306 298 292
305 309 311 313 313 312 316 316 316 315 317 318 316 318 319 323 321 319 316 313 311 313 318 312 317 317 315 308 308 311 310 310 308 306 305 303 303 298
304 306 305 306 304 304 310 312 311 310 309 308 312 314 314 317 316 314 312 310 307 314 321 310 314 310 308 308 313 312 310 311 311 308 304 300 300 299
299 300 302 306 307 309 315 313 313 311 306 308 308 308 308 311 311 309 311 313 312 315 330 308 309 308 309 308 308 310 309 308 308 309 308 306 301 296
298 300 302 307 306 311 314 317 318 318 320 321 320 318 318 318 318 318 318 317 319 319 307 316 317 322 320 308 307 310 310 311 310 309 307 305 302 296
310 311 307 304 310 317 319 322 318 318 321 321 323 324 325 323 320 319 318 317 314 309 317 318 311 315 306 306 306 308 311 312 311 309 307 306 304 299
303 312 309 315 321 323 322 320 318 318 318 320 323 327 327 326 325 324 323 320 315 312 317 319 309 313 313 306 301 307 308 311 315 312 312 308 304 297
300 301 315 316 317 318 319 318 318 320 321 322 325 326 326 324 323 322 321 322 320 323 328 330 321 314 307 300 298 307 311 311 312 312 314 312 307 300
301 310 311 314 317 316 317 318 322 323 325 325 323 322 321 321 325 328 327 328 324 326 332 337 330 322 314 311 306 307 313 299 312 316 311 306 302 294
296 307 305 307 310 314 316 319 321 321 320 320 319 320 321 321 325 329 330 328 327 328 330 337 335 328 322 319 311 316 309 306 306 310 311 308 303 297
294 302 307 310 313 315 316 317 319 319 320 320 319 319 318 320 323 327 330 329 326 331 334 339 337 334 333 322 318 311 304 308 313 315 312 304 303 306
295 298 304 308 311 312 312 313 317 319 319 318 317 316 317 318 320 325 329 328 325 330 334 340 339 341 326 316 321 319 309 312 313 312 311 306 298 309
293 297 300 304 306 307 308 311 313 315 315 314 314 314 314 315 317 321 325 326 326 328 332 340 342 342 320 313 312 317 318 310 313 311 312 315 312 316
286 291 297 301 303 304 307 310 310 311 311 311 312 311 312 311 312 317 320 322 323 327 329 335 339 344 326 322 316 320 327 331 317 312 315 311 311 316
290 294 297 299 301 303 305 305 305 306 307 307 307 307 309 309 309 314 317 319 321 323 325 330 340 342 327 323 317 317 322 335 336 331 325 317 308 305
291 293 295 298 299 299 300 301 302 305 306 306 305 305 307 306 306 309 312 315 317 321 327 330 339 338 328 323 321 320 324 329 332 335 335 342 342 343
Wind_Speed_850mb
22 20 20 19 18 17 18 20 23 18 31 26 31 40 39 42 44 46 47 50 54 60 64 69 70 70 68 69 69 74 70 61 63 72 80 93 113 106
13 10 7 3 4 6 9 14 20 23 19 36 46 53 53 52 53 56 56 55 52 53 56 63 70 73 75 71 73 75 79 73 65 65 69 71 68 86
9 6 2 2 6 10 14 18 23 30 40 52 57 60 64 66 65 64 68 69 69 61 57 60 63 67 72 77 76 77 80 78 80 81 79 72 65 68
5 2 4 8 13 18 22 26 29 34 45 57 63 66 69 69 72 72 72 73 78 77 74 73 70 69 69 69 72 77 80 82 81 82 82 81 77 74
6 10 13 17 21 25 29 33 37 40 45 54 64 66 70 72 78 81 83 83 83 84 86 84 80 76 76 76 76 78 78 76 79 78 80 85 85 81
12 17 20 24 29 32 35 38 41 44 48 54 60 66 69 73 77 88 97 91 96 89 89 85 88 92 93 93 94 89 83 78 75 76 84 90 90 88
15 19 24 27 31 34 36 39 42 45 49 54 61 66 70 76 81 89 96 105 107 88 89 98 105 104 98 97 96 96 96 95 94 91 82 75 86 94
16 18 22 25 30 32 33 36 39 42 46 51 55 60 66 70 76 81 90 100 111 90 119 124 110 112 106 99 96 96 98 100 98 97 97 95 86 79
21 23 26 30 34 38 36 37 37 38 42 45 47 54 62 65 72 76 78 85 95 105 104 127 116 111 100 94 99 102 100 92 91 93 98 98 92 82
22 25 27 28 32 38 40 39 38 38 39 44 48 55 58 61 63 69 76 88 95 94 85 116 104 103 112 126 120 104 92 94 98 98 96 95 96 98
20 23 26 28 32 37 40 42 44 43 44 45 46 49 53 56 59 68 73 83 100 101 61 56 89 125 131 128 102 105 106 109 105 105 103 98 93 89
21 21 24 30 34 38 39 42 46 47 53 53 50 47 48 50 53 56 62 71 77 90 45 90 100 94 110 120 118 129 123 117 111 109 110 104 93 88
26 25 31 32 35 34 36 37 41 49 50 52 53 52 51 50 50 51 52 58 67 73 79 67 96 91 68 110 136 121 119 119 119 115 111 107 99 87
30 32 32 34 33 35 36 38 42 44 48 52 54 55 57 58 57 58 60 57 56 64 68 59 76 75 83 105 107 128 125 120 116 116 107 103 96 87
31 32 34 34 36 37 37 40 42 45 48 51 55 57 58 60 61 62 62 63 65 65 61 57 60 69 71 87 100 113 116 122 107 98 100 98 97 102
34 34 34 35 38 40 40 39 41 45 49 53 56 58 60 62 61 62 69 71 76 76 71 62 64 63 77 75 76 99 95 91 100 111 112 118 113 102
39 35 35 36 38 40 42 43 43 45 48 51 56 60 62 64 63 62 63 68 71 80 85 77 75 69 67 62 80 79 86 94 103 111 111 120 111 99
37 38 37 40 42 44 47 48 46 47 49 51 54 58 62 64 66 64 62 64 71 75 80 83 88 90 80 73 43 66 81 95 111 111 109 102 118 99
38 40 41 43 45 47 50 51 51 49 50 52 55 58 62 64 65 66 63 63 69 73 76 80 82 75 79 98 75 55 89 108 109 114 104 110 112 115
41 43 43 45 48 51 51 52 51 51 52 54 56 58 60 64 66 65 63 63 68 74 80 77 73 67 67 93 117 106 74 88 94 108 119 117 114 110
41 44 45 48 50 52 53 53 54 55 55 57 57 60 60 62 65 62 62 59 63 70 79 78 73 68 76 89 96 109 107 89 78 89 100 106 107 107
44 48 46 49 52 54 55 56 58 55 56 57 58 60 61 60 64 64 61 61 61 67 74 74 76 75 77 75 90 99 111 119 100 92 82 71 83 95
47 50 51 51 52 55 57 59 60 59 58 59 61 62 61 63 60 61 62 58 60 66 69 75 76 74 79 75 82 90 101 109 115 126 99 75 70 69
Wind_Direction_850mb
274 275 276 278 285 297 308 314 319 319 323 315 327 321 326 324 324 321 317 312 304 297 289 281 280 282 285 281 287 292 295 296 291 286 292 272 256 258
254 250 250 268 336 351 356 348 340 333 315 313 323 325 323 323 322 319 317 311 309 307 303 295 289 283 282 279 279 279 282 291 290 288 288 293 289 273
183 180 178 22 351 343 343 342 337 331 325 321 324 326 326 326 323 321 320 318 316 313 306 302 299 296 291 288 286 283 282 281 282 286 284 284 284 273
179 230 318 332 331 334 334 334 333 330 325 322 320 324 326 328 326 323 321 319 317 317 316 310 305 302 299 294 288 288 286 285 284 278 276 279 276 274
318 324 329 328 327 329 331 331 330 328 324 321 320 322 322 325 323 322 322 320 317 318 318 318 317 315 312 305 300 300 298 297 288 284 278 277 273 274
314 318 322 323 324 326 327 328 326 324 322 320 320 321 324 327 326 324 319 321 319 320 316 316 316 312 313 314 313 312 305 299 295 289 285 276 275 274
312 316 318 321 320 320 322 324 324 324 324 323 323 324 326 328 330 328 323 322 321 323 319 315 315 317 316 315 313 314 315 315 311 307 300 291 284 278
296 302 307 312 313 315 319 322 322 324 321 321 321 321 323 326 324 324 322 322 323 317 320 317 320 317 318 315 314 312 310 311 311 310 308 306 298 292
305 309 311 313 313 312 316 316 316 315 317 318 316 318 319 323 321 319 316 313 311 313 318 312 317 317 315 308 308 311 310 310 308 306 305 303 303 298
304 306 305 306 304 304 310 312 311 310 309 308 312 314 314 317 316 314 312 310 307 314 321 310 314 310 308 308 313 312 310 311 311 308 304 300 300 299
299 300 302 306 307 309 315 313 313 311 306 308 308 308 308 311 311 309 311 313 312 315 330 308 309 308 309 308 308 310 309 308 308 309 308 306 301 296
298 300 302 307 306 311 314 317 318 318 320 321 320 318 318 318 318 318 318 317 319 319 307 316 317 322 320 308 307 310 310 311 310 309 307 305 302 296
310 311 307 304 310 317 319 322 318 318 321 321 323 324 325 323 320 319 318 317 314 309 317 318 311 315 306 306 306 308 311 312 311 309 307 306 304 299
303 312 309 315 321 323 322 320 318 318 318 320 323 327 327 326 325 324 323 320 315 312 317 319 309 313 313 306 301 307 308 311 315 312 312 308 304 297
300 301 315 316 317 318 319 318 318 320 321 322 325 326 326 324 323 322 321 322 320 323 328 330 321 314 307 300 298 307 311 311 312 312 314 312 307 300
301 310 311 314 317 316 317 318 322 323 325 325 323 322 321 321 325 328 327 328 324 326 332 337 330 322 314 311 306 307 313 299 312 316 311 306 302 294
296 307 305 307 310 314 316 319 321 321 320 320 319 320 321 321 325 329 330 328 327 328 330 337 335 328 322 319 311 316 309 306 306 310 311 308 303 297
294 302 307 310 313 315 316 317 319 319 320 320 319 319 318 320 323 327 330 329 326 331 334 339 337 334 333 322 318 311 304 308 313 315 312 304 303 306
295 298 304 308 311 312 312 313 317 319 319 318 317 316 317 318 320 325 329 328 325 330 334 340 339 341 326 316 321 319 309 312 313 312 311 306 298 309
293 297 300 304 306 307 308 311 313 315 315 314 314 314 314 315 317 321 325 326 326 328 332 340 342 342 320 313 312 317 318 310 313 311 312 315 312 316
286 291 297 301 303 304 307 310 310 311 311 311 312 311 312 311 312 317 320 322 323 327 329 335 339 344 326 322 316 320 327 331 317 312 315 311 311 316
290 294 297 299 301 303 305 305 305 306 307 307 307 307 309 309 309 314 317 319 321 323 325 330 340 342 327 323 317 317 322 335 336 331 325 317 308 305
291 293 295 298 299 299 300 301 302 305 306 306 305 305 307 306 306 309 312 315 317 321 327 330 339 338 328 323 321 320 324 329 332 335 335 342 342 343